[[{"header":{"parameterUnit":"m.s-1","parameterCategory":1,"la1":30.2991,"la2":30.254,"lo1":-89.0895,"lo2":-89.0444,"dy":0.0017,"dx":0.0017,"nx":28,"ny":28,"refTime":"2025-08-24T21:00:00:Z","depth":0,"parameterNumber":2,"parameterNumberName":"U-component_of_WINDS"},"data":[0,0,0,0,0,0,0,0,0,0,0,0,0,0,0,0,0,0,0,0,0,0,0,0,0,0,0,0,0,0,0,0,0,0,0,0,0,0,0,0,0,0,0,0,0,0,0,0,0,0,0,0,0,0,0,0,0,0,2.7432,2.7432,0,2.7459,2.7459,2.7459,2.7344,2.7341,2.7337,2.7334,2.7366,2.737,2.7374,0,0,0,0,0,0,0,0,0,0,0,0,0,2.7284,2.7287,2.7432,2.7432,2.7433,2.7459,2.7459,2.7459,2.7345,2.7341,2.7337,2.7333,2.7365,2.7369,2.7374,0,0,0,0,0,0,0,0,0,0,0,0,0,2.7333,2.7288,2.7432,2.7378,2.7374,2.7458,2.7459,2.7459,2.7346,2.7341,2.7336,2.7331,2.7363,2.7369,2.7375,2.7513,0,0,2.7393,2.7396,0,0,0,0,0,0,0,0,2.7331,2.7339,2.7386,2.7382,2.7377,2.7393,2.7418,2.7478,2.7347,2.7357,2.7334,2.7328,2.7379,2.7384,2.74,2.7515,2.7516,2.7394,2.7397,2.74,2.7401,0,0,0,0,0,0,0,2.7327,2.7337,2.7442,2.7387,2.7382,2.7354,2.7355,2.7429,2.7396,2.7355,2.7347,2.7352,2.7376,2.7394,2.74,2.7517,2.7393,2.7399,2.7402,2.7405,2.7744,2.7749,0,0,0,0,0,0,2.7331,2.7335,2.7442,2.7443,2.7341,2.7361,2.7362,2.7393,2.7395,2.739,2.7356,2.7346,2.7387,2.7393,2.74,2.7561,2.74,2.7405,2.7409,2.7739,2.7745,2.7751,0,0,0,0,0,0,2.7328,2.7341,2.7441,2.7387,2.7397,2.7368,2.7404,2.7396,2.7414,2.7395,2.7389,2.7381,2.7383,2.7392,2.7485,2.756,2.7408,2.7413,2.7732,2.7741,2.7748,2.7885,0,0,0,0,0,0,2.7324,2.7341,2.7393,2.7389,2.7401,2.7525,2.7409,2.74,2.7425,2.7412,2.7417,2.7413,2.738,2.7477,2.7491,2.7566,2.7418,2.7725,2.7736,2.7745,2.7873,2.7896,2.7916,0,0,0,0,0,2.7319,2.7432,2.7396,2.741,2.7465,2.7529,2.7536,2.7494,2.7431,2.7483,2.7471,2.7413,2.755,2.7487,2.7502,2.758,2.772,2.7733,2.7745,2.7864,2.7892,2.7916,0,0,0,0,0,0,2.7448,2.743,2.7391,2.7505,2.7519,2.751,2.7574,2.7526,2.756,2.7547,2.7495,2.7497,2.7599,2.7599,2.7529,2.7713,2.7624,2.764,2.7709,2.7736,2.7757,2.7755,2.7423,0,0,0,0,0,2.7489,2.7542,2.7524,2.7627,2.7636,2.7604,2.7631,2.7597,2.761,2.7616,2.761,2.7626,2.7672,2.7704,2.7746,2.7872,2.7871,2.7933,2.7955,2.7972,2.7987,2.8052,2.8079,2.7791,2.7791,2.7791,0,0,2.7576,2.7573,2.7609,2.7652,2.7659,2.7715,2.761,2.7675,2.7716,2.7626,2.7713,2.7709,2.7724,2.7833,2.7882,2.7837,2.8066,2.7988,2.8002,2.8007,2.8067,2.8094,2.8119,2.7799,2.7798,2.7796,0,0,2.7762,2.7765,2.785,2.7858,2.7869,2.7847,2.7867,2.7865,2.7858,2.7944,2.7877,2.7926,2.8008,2.802,2.8037,2.8225,2.8173,2.824,2.8352,2.8416,2.8439,2.8459,2.8525,2.8549,2.8254,2.8255,2.8255,0,2.7868,2.7949,2.79,2.7968,2.7988,2.7908,2.7993,2.8004,2.8029,2.8046,2.7994,2.8093,2.8097,2.8208,2.8253,2.827,2.8292,2.8239,2.8439,2.8459,2.8477,2.8539,2.8564,2.8263,2.8262,2.8261,2.826,0,2.8079,2.8136,2.8203,2.8226,2.8255,2.8331,2.8294,2.8329,2.8292,2.8275,2.8363,2.8365,2.8405,2.8428,2.8395,2.8534,2.8505,2.8448,2.8358,2.8513,2.8571,2.8594,2.8274,2.8271,2.8269,2.8267,0,0,2.8348,2.8341,2.8367,2.8375,2.8381,2.8424,2.8497,2.8533,2.8563,2.8583,2.8642,2.8712,2.8658,2.8677,2.8644,2.87,2.8847,2.8635,2.8635,2.8674,2.8999,2.9042,2.9071,2.8812,2.8817,2.882,2.8998,0,2.8529,2.8651,2.8608,2.8733,2.8784,2.8707,2.877,2.8781,2.8767,2.8809,2.8793,2.8843,2.8768,2.8779,2.8831,2.8818,2.8912,2.8805,2.8867,2.887,2.8865,2.9101,2.9147,2.9315,2.902,2.9024,2.9027,0,2.8757,2.8783,2.8913,2.8906,2.8926,2.8984,2.9013,2.9054,2.9064,2.9049,2.907,2.9024,2.9095,2.9004,2.91,2.9029,2.9051,2.9049,2.9054,2.9058,2.8958,2.9111,2.9368,2.9393,2.9062,2.9059,2.9057,0,2.8939,2.9007,2.9092,2.9102,2.9098,2.9139,2.914,2.9144,2.9168,2.9194,2.9209,2.9244,2.9264,2.9292,2.9256,2.9193,2.9358,2.9264,2.9348,2.9349,2.9386,2.9384,2.9649,2.9402,2.9402,2.9401,2.9401,0,2.9146,2.9228,2.9173,2.9226,2.9315,2.9265,2.9355,2.9347,2.9351,2.9401,2.9337,2.9386,2.9336,2.938,2.9352,2.9436,2.9445,2.9436,2.9428,2.9441,2.9443,2.9456,2.9443,2.9408,2.9406,2.9405,2.9404,0,2.9364,2.9331,2.9419,2.9406,2.9405,2.9471,2.9461,2.9509,2.9489,2.9553,2.9565,2.9536,2.9584,2.955,2.96,2.9581,2.969,2.9666,2.9687,2.968,2.9765,2.9757,3.0047,3.0082,2.9813,2.9816,2.9818,0,2.9498,2.9559,2.9552,2.9579,2.9583,2.963,2.9653,2.9605,2.9633,2.9647,2.9694,2.9736,2.9767,2.9847,2.9831,2.9867,2.9843,2.9942,2.9848,2.986,2.9844,2.984,2.9845,2.9961,2.9965,2.9967,2.9969,0,2.9739,2.9719,2.9754,2.9784,2.9813,2.9834,2.9851,2.9878,2.9829,2.9863,2.991,2.9934,2.9982,3.0025,3.0055,3.0056,3.0005,2.9999,3.002,3.0034,3.0043,3.0038,2.9738,2.9992,2.999,2.9988,2.9987,2.9986,2.9918,2.9968,2.997,3.0011,3.0018,3.0034,3.0078,3.0063,3.01,3.0135,3.0105,3.0161,3.0168,3.0202,3.0209,3.0253,3.0212,3.0243,3.0251,3.0259,3.0271,3.0036,3.0258,3.0258,3.0257,3.0256,3.0256,0,3.0155,3.0151,3.019,3.0213,3.0245,3.0192,3.0207,3.0238,3.0288,3.0297,3.0328,3.0382,3.0422,3.0408,3.0444,3.0481,3.0459,3.0492,3.0489,3.049,3.0305,3.0283,3.051,3.051,3.051,3.051,3.051,3.051,3.0282,3.0362,3.0342,3.0424,3.0421,3.0474,3.0487,3.0501,3.0508,3.057,3.0602,3.0592,3.0592,3.0626,3.0661,3.0656,3.0672,3.0714,3.07,3.0528,3.0503,3.0479,3.0458,3.0718,3.0718,3.0881,3.0882,3.0883]},{"header":{"parameterUnit":"m.s-1","parameterCategory":1,"la1":30.2991,"la2":30.254,"lo1":-89.0895,"lo2":-89.0444,"dy":0.0017,"dx":0.0017,"nx":28,"ny":28,"refTime":"2025-08-24T21:00:00:Z","depth":0,"parameterNumber":3,"parameterNumberName":"V-component_of_WINDS"},"data":[0,0,0,0,0,0,0,0,0,0,0,0,0,0,0,0,0,0,0,0,0,0,0,0,0,0,0,0,0,0,0,0,0,0,0,0,0,0,0,0,0,0,0,0,0,0,0,0,0,0,0,0,0,0,0,0,0,0,3.4744,3.4745,0,3.4818,3.4818,3.4819,3.4814,3.4813,3.4811,3.481,3.4881,3.4884,3.4887,0,0,0,0,0,0,0,0,0,0,0,0,0,3.4591,3.4594,3.4744,3.4745,3.4746,3.4818,3.4819,3.482,3.4814,3.4812,3.4811,3.481,3.488,3.4883,3.4887,0,0,0,0,0,0,0,0,0,0,0,0,0,3.466,3.4595,3.4744,3.4752,3.4753,3.4817,3.4819,3.482,3.4814,3.4812,3.4811,3.4809,3.4879,3.4883,3.4887,3.4947,0,0,3.4901,3.4902,0,0,0,0,0,0,0,0,3.4656,3.4666,3.4749,3.4751,3.4753,3.4805,3.4791,3.4862,3.4815,3.4791,3.481,3.4808,3.4857,3.4863,3.488,3.495,3.4953,3.4901,3.4904,3.4905,3.4907,0,0,0,0,0,0,0,3.4652,3.4663,3.4773,3.4751,3.4753,3.4749,3.4757,3.4804,3.4832,3.4793,3.4792,3.4802,3.4857,3.4876,3.4882,3.4954,3.4901,3.4905,3.4907,3.4909,3.5074,3.5076,0,0,0,0,0,0,3.4646,3.4659,3.477,3.4775,3.47,3.4753,3.4762,3.479,3.4831,3.4836,3.4803,3.4801,3.4869,3.4876,3.4884,3.4955,3.4905,3.491,3.4912,3.5073,3.5075,3.5077,0,0,0,0,0,0,3.4643,3.4656,3.4767,3.4717,3.4731,3.4758,3.4789,3.4792,3.4811,3.4839,3.4843,3.4817,3.4868,3.4878,3.4931,3.4957,3.4911,3.4915,3.507,3.5073,3.5076,3.5098,0,0,0,0,0,0,3.4638,3.4655,3.4679,3.4718,3.4734,3.4815,3.479,3.4795,3.4819,3.4817,3.4854,3.4858,3.4868,3.4925,3.4935,3.4962,3.4919,3.5068,3.5072,3.5075,3.5095,3.5101,3.5106,0,0,0,0,0,3.4633,3.4682,3.4681,3.4694,3.4765,3.4817,3.4826,3.4837,3.4821,3.4845,3.4863,3.4857,3.4953,3.493,3.4942,3.4971,3.5067,3.5071,3.5075,3.5093,3.51,3.5106,0,0,0,0,0,0,3.4645,3.4687,3.4686,3.475,3.478,3.4816,3.4846,3.4845,3.4879,3.4876,3.4887,3.4895,3.4948,3.4965,3.4939,3.5029,3.5007,3.5014,3.5017,3.5024,3.503,3.5024,3.4922,0,0,0,0,0,3.4655,3.4696,3.473,3.4783,3.4798,3.482,3.4843,3.4849,3.488,3.4892,3.4914,3.4942,3.4979,3.5002,3.5038,3.5098,3.5104,3.5123,3.5129,3.5133,3.5138,3.5169,3.5177,3.509,3.509,3.509,0,0,3.4677,3.4705,3.473,3.4786,3.481,3.4849,3.483,3.4873,3.4902,3.4898,3.495,3.4966,3.4999,3.5055,3.5081,3.507,3.5164,3.5138,3.5142,3.5144,3.5174,3.5182,3.5189,3.5092,3.5092,3.5092,0,0,3.4736,3.4762,3.4808,3.4832,3.4869,3.4883,3.4894,3.493,3.4941,3.4994,3.4991,3.5024,3.5087,3.511,3.513,3.5195,3.519,3.5206,3.5235,3.5265,3.5271,3.5278,3.5299,3.5307,3.5211,3.5211,3.5211,0,3.4757,3.4818,3.4831,3.4874,3.4898,3.4897,3.4942,3.4965,3.5011,3.5026,3.5014,3.5092,3.5114,3.5174,3.519,3.5207,3.5218,3.5202,3.527,3.5276,3.5282,3.5302,3.5311,3.5213,3.5213,3.5212,3.5212,0,3.4841,3.4884,3.4916,3.4962,3.4989,3.5033,3.505,3.5075,3.5078,3.5093,3.5144,3.5171,3.521,3.5225,3.5228,3.5285,3.5278,3.5268,3.5245,3.5292,3.5311,3.5319,3.5215,3.5214,3.5214,3.5214,0,0,3.4911,3.4962,3.4974,3.4993,3.5033,3.5065,3.5107,3.5148,3.5168,3.5199,3.5234,3.5286,3.5277,3.5299,3.5305,3.5331,3.5378,3.5318,3.5318,3.5327,3.544,3.5447,3.5456,3.5376,3.5377,3.5379,3.5437,0,3.4973,3.505,3.5062,3.5129,3.5166,3.5166,3.5202,3.5229,3.5243,3.5275,3.529,3.5326,3.5312,3.5325,3.5351,3.5367,3.5401,3.5363,3.5406,3.5407,3.5397,3.5466,3.5474,3.5528,3.5445,3.5446,3.5447,0,3.5056,3.509,3.5161,3.5194,3.521,3.5243,3.5279,3.5311,3.534,3.5348,3.5373,3.5375,3.5416,3.5393,3.5448,3.5422,3.544,3.545,3.5452,3.5456,3.5429,3.547,3.5545,3.5553,3.546,3.5459,3.5458,0,3.5097,3.5161,3.5211,3.5228,3.5268,3.5291,3.5308,3.5337,3.5359,3.539,3.5404,3.5439,3.5458,3.5484,3.5494,3.5477,3.5549,3.5527,3.5555,3.5554,3.5569,3.5568,3.5647,3.5583,3.5583,3.5583,3.5582,0,3.5164,3.5207,3.523,3.5261,3.5308,3.532,3.5366,3.5382,3.5407,3.5439,3.5439,3.5469,3.5482,3.5513,3.5521,3.5564,3.5573,3.5579,3.5581,3.5579,3.5578,3.559,3.5586,3.5585,3.5584,3.5584,3.5583,0,3.5218,3.5236,3.529,3.5323,3.5333,3.5366,3.5393,3.5422,3.5435,3.5475,3.5485,3.5506,3.5542,3.5555,3.5599,3.5604,3.5654,3.5653,3.5645,3.5645,3.5672,3.5669,3.576,3.5772,3.5701,3.5702,3.5703,0,3.526,3.5293,3.533,3.5352,3.537,3.5406,3.5429,3.5441,3.5465,3.55,3.5524,3.556,3.559,3.5647,3.5665,3.5698,3.5696,3.5726,3.5701,3.5698,3.5695,3.5692,3.5695,3.5731,3.5731,3.5732,3.5732,0,3.5331,3.5337,3.5371,3.5408,3.5435,3.5465,3.5493,3.551,3.5526,3.5552,3.559,3.5613,3.5657,3.5693,3.5726,3.5741,3.5739,3.574,3.5748,3.5746,3.5739,3.5742,3.5656,3.5738,3.5737,3.5737,3.5737,3.5736,3.5379,3.5407,3.5438,3.5475,3.5497,3.5523,3.5551,3.5568,3.56,3.5638,3.5643,3.5682,3.5708,3.5753,3.577,3.58,3.5792,3.5804,3.5807,3.5809,3.581,3.5735,3.5806,3.5806,3.5806,3.5806,3.5806,0,3.5448,3.5468,3.5502,3.5541,3.557,3.5566,3.5596,3.562,3.5655,3.5681,3.571,3.5752,3.5786,3.5805,3.5839,3.5858,3.5858,3.5867,3.5865,3.5868,3.5817,3.5806,3.5866,3.5866,3.5866,3.5866,3.5866,3.5866,3.5488,3.5536,3.5545,3.5603,3.5621,3.5662,3.5679,3.5701,3.5722,3.5769,3.5798,3.5811,3.5833,3.5867,3.5897,3.5902,3.5913,3.5923,3.5926,3.5878,3.5872,3.5866,3.5856,3.5926,3.5926,3.5975,3.5975,3.5976]}]]